This is the latest recevied weather packets stored in our database for station/object AC2VK-1. If no packets are shown the sender has not sent any weather packets the latest 10 day(s).
| Time | Temp. | Humidity | Pressure | Rain* | Wind** | Luminosity | Snow |
|---|---|---|---|---|---|---|---|
| 1777735165 | 15.56° C | 44% | 1017.6 hPa | 0 mm | - | - | - |
| 1777734565 | 15.56° C | 51% | 1017.6 hPa | 0 mm | - | - | - |
| 1777733965 | 15° C | 50% | 1017.5 hPa | 0 mm | - | - | - |
| 1777733365 | 14.44° C | 51% | 1017.6 hPa | 0 mm | - | - | - |
| 1777732765 | 14.44° C | 48% | 1017.6 hPa | 0 mm | - | - | - |
| 1777732165 | 14.44° C | 50% | 1017.6 hPa | 0 mm | - | - | - |
| 1777731565 | 13.89° C | 50% | 1017.7 hPa | 0 mm | - | - | - |
| 1777730965 | 13.89° C | 52% | 1017.5 hPa | 0 mm | - | - | - |
| 1777730366 | 13.33° C | 61% | 1017.5 hPa | 0 mm | - | - | - |
| 1777729766 | 13.33° C | 62% | 1017.7 hPa | 0 mm | - | - | - |
| 1777729166 | 12.78° C | 64% | 1017.5 hPa | 0 mm | - | - | - |
| 1777728566 | 12.22° C | 64% | 1017.3 hPa | 0 mm | - | - | - |
| 1777727966 | 12.22° C | 66% | 1017.5 hPa | 0 mm | - | - | - |
| 1777727366 | 11.67° C | 67% | 1017.5 hPa | 0 mm | - | - | - |
| 1777726766 | 11.11° C | 67% | 1017.5 hPa | 0 mm | - | - | - |
| 1777726166 | 11.11° C | 69% | 1017.3 hPa | 0 mm | - | - | - |
| 1777725566 | 10.56° C | 70% | 1017.3 hPa | 0 mm | - | - | - |
| 1777724966 | 10.56° C | 69% | 1017.4 hPa | 0 mm | - | - | - |
| 1777724366 | 10.56° C | 69% | 1017.2 hPa | 0 mm | - | - | - |
| 1777723766 | 10.56° C | 70% | 1017.3 hPa | 0 mm | - | - | - |
| 1777723166 | 10.56° C | 70% | 1017.4 hPa | 0 mm | - | - | - |
| 1777722566 | 10.56° C | 71% | 1017.3 hPa | 0 mm | - | - | - |
| 1777721966 | 10° C | 71% | 1016.9 hPa | 0 mm | - | - | - |
| 1777721366 | 10° C | 71% | 1016.7 hPa | 0 mm | - | - | - |
| 1777720766 | 10° C | 71% | 1016.8 hPa | 0 mm | - | - | - |
* Rain latest hour (hover to see other rain measurements)
** Current wind speed in m/s (hover to see current wind gust speed)